Retour au catalogue

XIWANG-5 02

ActifRadio amateurVLEO
NORAD 67069·PAYLOAD·🇨🇳 China

Lancé Dec 13, 2025 depuis Jiuquan Satellite Launch Center

Loading…

Prochains Passages (prochaines 24 heures)

TLE

FraisSource: Space-Track

Époque: Sep 14, 2026, 16:07 UTC

1 67069U 25296A   26257.67204871  .00007627  00000-0  37977-3 0  9997
2 67069  41.3528 330.6734 0004874  16.9869 343.1115 15.17770187 41839

Suivez XIWANG-5 02 en temps réel avec AllMySat

Download on the App Store